Regional Weather Roundup
Issued by NWS State College, PA

Home | Current Version | Previous Version | Text Only | Print | Product List | Glossary On
Versions: 1 2 3 4 5 6 7 8 9 10 11 12 13 14 15 16 17 18 19 20 21 22 23 24 25 26 27 28 29 30 31 32 33 34 35 36 37 38 39 40 41 42 43 44 45 46 47 48 49 50
000
ASUS41 KCTP 051903
RWRCTP

REGIONAL WEATHER ROUNDUP
NATIONAL WEATHER SERVICE STATE COLLEGE PA
300 PM EDT TUE MAY 05 2015

Note: "fair" indicates few or no clouds below 12,000 feet with no
significant weather and/or obstructions to visibility.

* = STATION THAT DOES NOT REPORT PRECIPITATION /E.G. RAIN...SNOW...ETC/
    THUNDER OR FOG.

PAZ002>004-007>009-013>016-020>023-029>032-052000-
WESTERN PENNSYLVANIA

CITY           SKY/WX    TMP DP  RH WIND       PRES   REMARKS
ERIE           CLOUDY    60  55  83 NE8       30.26F HAZE
MEADVILLE      CLOUDY    66  58  75 SW6       30.26F HAZE
FRANKLIN*      CLOUDY    66  55  68 W6        30.28F
NEW CASTLE     FAIR      72  64  75 S5        30.26F
BEAVER COUNTY  CLOUDY    70  59  68 S3        30.27F
BUTLER*        CLOUDY    70  61  73 SW5       30.29F
PITTSBURGH INT CLOUDY    70  59  68 S5        30.26F
PITTSBURGH     PTSUNNY   71  57  61 VRB6      30.26F
INDIANA*       PTSUNNY   72  59  64 W9        30.30F
LATROBE        NOT AVBL
WASHINGTON CO* PTSUNNY   73  57  56 W3        30.29F
$$

PAZ004>006-010>012-017>019-024>028-033>037-041-042-045-046-049>053-052000-
CENTRAL PENNSYLVANIA

CITY           SKY/WX    TMP DP  RH WIND       PRES   REMARKS
BRADFORD       HVY RAIN  64  55  72 W7        30.26F
DUBOIS         CLOUDY    69  57  65 W8        30.26F
CLEARFIELD     HVY RAIN  66  58  75 W6        30.26F
JOHNSTOWN      CLOUDY    67  56  67 W9        30.29F
ALTOONA        MOSUNNY   71  59  65 CALM      30.27F
STATE COLLEGE  PTSUNNY   72  59  64 SW6       30.26F
WILLIAMSPORT   CLOUDY    76  53  44 W6        30.21S
SELINSGROVE    CLOUDY    73  61  65 S3        30.23F
FT INDIANTOWN  NOT AVBL
CAPITAL CITY   CLOUDY    75  58  55 NW5       30.23F
HARRISBURG     CLOUDY    74  58  57 NW6       30.22F
YORK           PTSUNNY   78  58  49 W6        30.23F
$$

PAZ038>040-043-044-047-048-054-055-060>062-067>071-052000-
EASTERN PENNSYLVANIA

CITY           SKY/WX    TMP DP  RH WIND       PRES   REMARKS
SCRANTON       CLOUDY    78  49  35 VRB5      30.21F
MOUNT POCONO   PTSUNNY   73  45  36 NW9       30.24F
ALLENTOWN      CLOUDY    79  54  41 NW9       30.20S
QUAKERTOWN*    MOCLDY    81  55  41 W6        30.21F
READING        CLOUDY    78  57  48 W8        30.20F
LANCASTER      PTSUNNY   75  58  55 W9        30.22F
COATESVILLE    MOCLDY    77  59  53 W10       30.24S
POTTSTOWN      PTSUNNY   78  56  46 NW9       30.22S
BLUE BELL      MOSUNNY   82  54  36 NW6       30.19F
DOYLESTOWN     MOSUNNY   79  53  40 VRB6      30.19F
WILLOW GROVE   NOT AVBL
NORTH PHILA    MOSUNNY   83  54  36 NW8       30.20F
PHILADELPHIA   MOSUNNY   84  55  36 SW12      30.19F
$$


USA.gov is the U.S. government's official web portal to all federal, state and local government web resources and services.